Location: RyutenAO
(34.8939°N, 134.0022°E)
Time: 10:32:19
(UTC+09:00)

Oscar 19 - Pass Details

Date: 04 April 2023
Orbit: 773 x 788 km, 98.8° (Epoch: 29 May)

Event Time Altitude Azimuth Distance (km) Brightness Sun altitude
Rises 05:16:06 0° 356° (N) 3,269 14.0 -7.3°
Reaches altitude 10° 05:18:57 10° 340° (NNW) 2,340 13.0 -6.7°
Maximum altitude 05:22:39 20° 294° (WNW) 1,732 12.0 -5.9°
Drops below altitude 10° 05:26:20 10° 248° (WSW) 2,337 12.5 -5.2°
Enters shadow 05:28:30 - 235° (SW) 3,021 13.1 -4.8°
